This is the latest recevied weather packets stored in our database for station/object DC4AT. If no packets are shown the sender has not sent any weather packets the latest 10 day(s).
| Time | Temp. | Humidity | Pressure | Rain* | Wind** | Luminosity | Snow |
|---|---|---|---|---|---|---|---|
| 1777067048 | 7.22° C | 89% | 1019.7 hPa | 0 mm | - | 0 W/m² | - |
| 1777066448 | 7.78° C | 84% | 1019.8 hPa | 0 mm | - | 0 W/m² | - |
| 1777065848 | 8.33° C | 83% | 1019.6 hPa | 0 mm | - | 0 W/m² | - |
| 1777065248 | 8.33° C | 83% | 1019.7 hPa | 0 mm | - | 0 W/m² | - |
| 1777064648 | 8.89° C | 82% | 1019.7 hPa | 0 mm | - | 0 W/m² | - |
| 1777064048 | 8.89° C | 82% | 1019.7 hPa | 0 mm | - | 0 W/m² | - |
| 1777063448 | 8.89° C | 81% | 1019.6 hPa | 0 mm | - | 0 W/m² | - |
| 1777062848 | 9.44° C | 80% | 1019.5 hPa | 0 mm | - | 0 W/m² | - |
| 1777062248 | 9.44° C | 79% | 1019.5 hPa | 0 mm | - | 0 W/m² | - |
| 1777061648 | 10° C | 79% | 1019.5 hPa | 0 mm | - | 0 W/m² | - |
| 1777061049 | 9.44° C | 78% | 1019.6 hPa | 0 mm | - | 0 W/m² | - |
| 1777060448 | 10° C | 77% | 1019.6 hPa | 0 mm | - | 0 W/m² | - |
| 1777059849 | 10° C | 76% | 1019.6 hPa | 0 mm | - | 0 W/m² | - |
| 1777059249 | 10° C | 75% | 1019.5 hPa | 0 mm | - | 0 W/m² | - |
| 1777058649 | 10.56° C | 73% | 1019.5 hPa | 0 mm | - | 0 W/m² | - |
| 1777058049 | 11.11° C | 72% | 1019.5 hPa | 0 mm | - | 0 W/m² | - |
| 1777057449 | 11.67° C | 72% | 1019.6 hPa | 0 mm | - | 0 W/m² | - |
| 1777056849 | 11.67° C | 70% | 1019.5 hPa | 0 mm | - | 0 W/m² | - |
| 1777056249 | 12.22° C | 68% | 1019.5 hPa | 0 mm | - | 0 W/m² | - |
| 1777055649 | 12.78° C | 66% | 1019.4 hPa | 0 mm | - | 0 W/m² | - |
| 1777055049 | 13.33° C | 65% | 1019.4 hPa | 0 mm | - | 9 W/m² | - |
| 1777054449 | 13.33° C | 66% | 1019.4 hPa | 0 mm | - | 18 W/m² | - |
| 1777053849 | 13.89° C | 65% | 1019.1 hPa | 0 mm | - | 30 W/m² | - |
| 1777053249 | 14.44° C | 63% | 1019.1 hPa | 0 mm | - | 28 W/m² | - |
| 1777052649 | 14.44° C | 62% | 1019.2 hPa | 0 mm | - | 67 W/m² | - |
* Rain latest hour (hover to see other rain measurements)
** Current wind speed in m/s (hover to see current wind gust speed)